SCP
0 0 0 0 0 0 0 0 0 0 0 0 0 0 0 0 0 0 0 0 0 0 0 0 0 0 0 0 0 0 0 0 0 0 0 0 0 0 0 0 0 0 0 0
0 0 0 0 0 0 0 0 0 0 0 0 0 0 0 0 0 0 0 0 0 0 0 0 0 0 0 0 0 0 0 0 0 0 0 0 0 0 0 0 0 0 0 0
0 0 0 0 0 0 0 0 0 0 0 0 0 0 0 0 0 0 0 0 0 0 0 0 0 0 0 0 0 0 0 0 0 0 0 0 0 0 0 0 0 0 0 0
0 0 0 0 0 0 0 0 0 0 0 0 0 0 0 0 0 0 0 0 0 0 0 0 0 0 0 0 0 0 0 0 0 0 0 0 0 0 0 0 0 0 0 0
0 0 0 0 0 0 0 0 0 0 0 0 0 0 0 0 0 0 0 0 0 0 0 0 0 0 0 0 0 0 0 0 0 0 0 0 0 0 0 0 0 0 0 0
0 0 0 0 0 0 0 0 0 0 0 0 0 0 0 0 0 0 0 0 0 0 0 0 0 0 0 0 0 0 0 0 0 0 0 0 0 0 0 0 0 0 0 0
0 0 0 0 0 0 0 0 0 0 0 0 0 0 0 0 0 0 0 0 0 0 0 0 0 0 0 0 0 0 0 0 0 0 0 0 0 0 0 0 0 0 0 0
0 0 0 0 0 0 0 0 0 0 0 0 0 0 0 0 0 0 0 0 0 0 0 0 0 0 0 0 0 0 0 0 0 0 0 0 0 0 0 0 0 0 0 0
0 0 0 0 0 0 0 0 0 0 0 0 0 0 0 0 0 0 0 0 0 0 0 0 0 0 0 0 0 0 0 0 0 0 0 0 0 0 0 0 0 0 0 0
0 0 0 0 0 0 0 0 0 0 0 0 0 0 0 0 0 0 0 0 0 0 0 0 0 0 0 0 0 0 0 0 0 0 0 0 0 0 0 0 0 0 0 0
0 0 0 0 0 0 0 0 0 0 0 0 0 0 0 0 0 0 0 0 0 0 0 0 0 0 0 0 0 0 0 0 0 0 0 0 0 0 0 0 0 0 0 0
0 0 0 0 0 0 0 0 0 0 0 0 0 0 0 0 0 0 0 0 0 0 0 0 0 0 0 0 0 0 0 0 0 0 0 0 0 0 0 0 0 0 0 0
0 0 0 0 0 0 0 0 0 0 0 0 0 0 0 0 0 0 0 0 0 0 0 0 0 0 0 0 0 0 0 0 0 0 0 0 0 0 0 0 0 0 0 0
0 0 0 0 0 0 0 0 0 0 0 0 0 0 0 0 0 0 0 0 0 0 0 0 0 0 0 0 0 0 0 0 0 0 0 0 0 0 0 0 0 0 0 0
0 0 0 0 0 0 0 0 0 0 0 0 0 0 0 0 0 0 0 0 0 0 0 0 0 0 0 0 0 0 0 0 0 0 0 0 0 0 0 0 0 0 0 0
0 0 0 0 0 0 0 0 0 0 0 0 0 0 0 0 0 0 0 0 0 0 0 0 0 0 0 0 0 0 0 0 0 0 0 0 0 0 0 0 0 0 0 0
0 0 0 0 0 0 0 0 0 0 0 0 0 0 0 0 0 0 0 0 0 0 0 0 0 0 0 0 0 0 0 0 0 0 0 0 0 0 0 0 0 0 0 0
0 0 0 0 0 0 0 0 0 0 0 0 0 0 0 0 0 0 0 0 0 0 0 0 0 0 0 0 0 0 0 0 0 0 0 0 0 0 0 0 0 0 0 0
0 0 0 0 0 0 0 0 0 0 0 0 0 0 0 0 0 0 0 0 0 0 0 0 0 0 0 0 0 0 0 0 0 0 0 0 0 0 0 0 0 0 0 0
0 0 0 0 0 0 0 0 0 0 0 0 0 0 0 0 0 0 0 0 0 0 0 0 0 0 0 0 0 0 0 0 0 0 0 0 0 0 0 0 0 0 0 0
0 0 0 0 0 0 0 0 0 0 0 0 0 0 0 0 0 0 0 0 0 0 0 0 0 0 0 0 0 0 0 0 0 0 0 0 0 0 0 0 0 0 0 0
0 0 0 0 0 0 0 0 0 0 0 0 0 0 0 0 0 0 0 0 0 0 0 0 0 0 0 0 0 0 0 0 0 0 0 0 0 0 0 0 0 0 0 0
0 0 0 0 0 0 0 0 0 0 0 0 0 0 0 0 0 0 0 0 0 0 0 0 0 0 0 0 0 0 0 0 0 0 0 0 0 0 0 0 0 0 0 0
0 0 0 0 0 0 0 0 0 0 0 0 0 0 0 0 0 0 0 0 0 0 0 0 0 0 0 0 0 0 0 0 0 0 0 0 0 0 0 0 0 0 0 0
0 0 0 0 0 0 0 0 0 0 0 0 0 0 0 0 0 0 0 0 0 0 0 0 0 0 0 0 0 0 0 0 0 0 0 0 0 0 0 0 0 0 0 0
0 0 0 0 0 0 0 0 0 0 0 0 0 0 0 0 0 0 0 0 0 0 0 0 0 0 0 0 0 0 0 0 0 0 0 0 0 0 0 0 0 0 0 0
Wind_Speed
2 2 3 3 3 2 2 4 5 4 3 5 8 9 6 5 7 7 6 5 5 4 2 1 0 1 1 1 2 2 2 2 2 1 1 1 2 2 2 2 3 3 3 3
3 2 1 1 2 2 3 4 4 3 3 5 7 10 7 7 8 7 7 6 5 4 3 2 1 0 1 1 1 1 1 2 2 1 1 2 2 1 2 2 2 3 3 3
3 1 1 3 3 2 3 4 5 4 4 3 6 8 7 5 6 5 6 6 5 5 4 3 1 1 1 1 2 2 2 2 2 1 1 1 1 1 1 2 2 3 3 3
2 1 2 3 3 4 4 3 4 4 4 3 3 7 5 5 5 5 6 5 5 4 4 3 2 2 2 1 2 2 2 2 2 1 1 1 1 2 2 2 2 3 3 3
2 1 2 3 2 3 1 1 2 3 4 5 4 7 5 3 6 6 5 5 5 4 4 4 2 2 2 1 1 2 2 2 2 1 2 2 2 2 2 2 2 3 2 3
1 0 1 0 1 1 2 1 1 2 3 6 5 7 6 3 5 4 4 4 5 4 4 3 2 1 1 1 1 1 2 1 2 2 2 2 2 2 3 2 2 2 2 2
1 2 1 1 2 2 2 2 1 2 3 5 2 7 7 2 3 4 4 4 4 4 4 3 2 2 1 1 1 1 2 2 2 2 2 2 2 3 3 3 3 3 2 2
3 3 3 1 2 3 4 3 3 4 4 3 4 8 4 1 2 3 4 4 4 4 3 3 3 2 2 2 2 2 2 2 2 2 2 3 3 2 2 3 3 3 3 3
4 2 2 0 1 2 3 3 2 1 2 6 6 6 6 3 4 4 4 4 4 3 3 3 3 3 2 2 2 2 2 2 3 2 3 3 2 3 3 3 3 3 3 3
1 2 1 1 2 1 1 3 3 3 4 6 6 7 4 3 4 4 4 4 3 3 3 3 3 3 2 2 2 2 2 2 2 2 2 2 3 3 3 3 3 4 3 3
1 3 2 3 5 4 4 3 3 2 3 5 6 4 1 3 3 4 4 4 4 3 3 3 3 2 2 2 2 2 2 2 2 2 2 2 3 3 3 3 3 4 3 3
2 2 2 3 1 3 4 5 5 4 5 5 6 5 1 2 3 3 4 4 3 3 3 3 3 2 2 2 2 2 2 2 2 2 3 3 3 3 3 3 4 4 3 3
3 3 2 2 3 3 4 4 4 2 2 5 7 6 1 3 4 4 5 4 3 3 2 2 2 2 2 2 2 2 2 2 2 2 2 3 3 3 3 4 4 4 4 4
2 3 5 6 2 3 5 6 6 6 6 7 10 10 6 5 6 5 5 5 4 3 3 3 3 3 2 2 2 2 2 2 2 2 2 3 3 3 4 4 4 4 4 4
2 3 4 5 4 3 6 7 9 11 10 10 10 11 11 8 8 8 7 5 4 4 4 4 4 3 2 2 2 2 2 2 2 2 3 3 3 3 4 4 4 4 4 4
1 2 2 4 3 4 6 8 10 11 11 13 13 14 9 8 7 7 6 5 5 5 5 4 4 3 3 3 2 2 2 2 2 2 3 3 3 3 4 4 4 4 4 4
3 4 3 4 2 3 8 8 10 8 8 8 11 10 7 8 8 8 7 6 6 6 5 5 4 4 3 3 3 3 2 2 2 2 3 3 3 3 4 4 4 4 4 4
4 3 2 1 1 8 2 1 5 6 7 8 8 8 8 9 8 7 6 6 7 6 5 5 4 3 2 2 2 2 2 2 2 3 3 3 3 4 4 4 4 4 4 4
2 4 3 2 4 8 4 2 2 4 7 5 8 10 9 7 6 5 3 5 6 6 5 4 3 3 2 2 1 2 2 2 2 3 3 4 4 4 4 4 5 4 4 4
1 2 3 3 5 7 1 2 0 2 5 1 4 7 6 5 5 3 5 6 5 4 2 2 2 1 1 1 1 2 2 2 3 3 4 4 4 4 4 4 5 4 4 4
3 3 5 5 6 7 1 1 2 4 3 3 3 4 3 4 4 6 6 5 4 3 2 2 1 1 1 1 1 2 2 3 3 4 4 4 4 4 4 4 4 4 4 4
6 6 6 5 6 6 3 4 5 3 3 3 3 3 3 5 5 5 5 4 4 3 2 2 1 1 2 1 1 2 3 3 3 4 4 4 4 4 3 4 4 4 4 4
6 5 4 7 5 2 3 4 3 2 3 3 3 3 3 4 4 4 4 4 3 3 2 2 2 2 2 2 2 2 3 3 3 3 4 4 4 4 4 4 4 3 3 3
4 2 4 5 7 5 5 5 4 4 4 4 4 4 3 4 4 4 3 3 3 2 2 2 1 2 3 3 2 3 3 3 3 4 4 4 3 3 3 3 3 3 3 3
4 5 4 6 6 5 5 5 5 4 5 5 4 4 4 4 4 3 3 3 2 2 2 1 1 2 3 3 3 3 3 3 3 4 4 3 3 3 3 3 3 3 3 4
5 6 6 6 4 4 4 3 4 4 5 4 4 4 3 4 4 3 3 2 2 2 2 2 2 2 3 3 3 3 3 3 3 3 3 3 3 3 3 3 3 4 5 6
Wind_Direction
83 155 189 203 222 277 232 241 257 281 295 267 254 257 253 229 234 235 234 234 231 231 230 237 63 36 26 17 2 0 5 9 8 355 336 340 357 0 7 14 8 1 357 350
149 194 233 176 161 177 219 241 269 283 302 277 271 267 257 234 237 245 243 237 235 231 225 226 230 341 333 343 331 334 348 352 354 344 324 323 327 328 343 354 359 356 353 351
177 100 135 161 169 199 238 250 265 278 295 252 283 262 235 223 236 244 245 241 234 231 229 221 220 257 293 314 316 317 328 328 332 331 321 325 314 308 325 346 347 350 346 348
124 140 178 184 212 235 244 268 261 260 260 259 274 278 232 218 234 233 235 232 232 226 226 230 234 256 276 299 315 312 311 318 323 309 288 296 302 310 323 319 318 328 341 347
146 174 185 203 236 239 239 302 253 251 254 261 237 263 257 204 239 235 233 233 231 225 227 230 234 255 279 304 318 313 303 312 315 303 286 276 286 302 306 303 307 322 333 341
124 115 309 142 57 155 147 151 145 213 236 253 239 248 264 223 236 235 236 239 230 223 223 229 234 258 277 318 326 311 300 301 299 291 283 277 284 292 295 302 308 312 316 323
173 163 130 156 143 153 209 213 236 229 230 248 210 245 259 265 242 241 255 254 229 217 217 219 222 237 266 279 287 295 302 301 292 279 278 278 276 279 283 292 292 299 304 313
195 201 169 187 224 201 206 237 243 260 264 274 219 245 260 256 250 252 253 253 225 218 218 223 225 231 244 258 269 274 291 297 296 288 286 277 275 278 282 286 289 286 291 297
206 185 109 43 335 207 182 209 306 273 288 271 252 261 264 227 247 244 244 239 232 232 231 235 234 237 240 249 265 267 277 291 299 299 293 284 284 284 284 289 289 286 290 292
201 196 203 180 176 89 299 151 177 212 247 261 264 259 263 243 256 246 242 243 245 238 240 246 243 249 244 241 259 264 271 280 292 295 297 298 292 290 289 289 288 289 293 292
210 186 184 202 213 203 174 180 207 220 265 267 275 267 336 261 261 260 261 259 254 240 237 240 241 245 245 244 246 257 266 274 282 292 295 293 297 297 294 293 295 298 294 291
175 197 223 233 265 294 242 223 204 228 235 245 270 275 92 285 299 289 283 277 261 246 238 242 243 235 233 236 246 258 274 276 283 287 289 293 300 297 298 302 304 305 300 294
163 173 201 215 200 200 225 221 225 240 227 231 247 264 78 304 302 296 293 291 276 260 252 247 244 235 237 242 255 267 277 283 284 281 284 290 295 300 301 304 306 305 302 296
169 196 229 252 289 193 222 221 210 209 230 242 248 271 284 294 302 305 303 296 286 271 256 251 247 244 246 256 261 269 281 286 282 279 281 288 297 301 302 301 303 303 301 302
186 216 235 270 285 259 246 234 215 221 235 248 265 269 282 293 298 302 302 295 287 276 264 257 257 254 244 254 269 276 286 287 278 279 286 293 299 300 301 297 299 302 300 300
171 202 208 254 256 260 260 248 232 235 243 254 271 278 288 298 298 296 293 284 275 270 267 265 263 258 248 250 262 274 279 288 282 278 288 300 300 298 299 302 298 297 298 300
174 171 209 241 286 274 253 231 216 225 233 244 254 271 303 301 302 301 298 286 280 278 270 261 258 257 252 253 258 262 272 279 279 281 287 292 295 300 302 302 297 297 295 296
170 179 206 238 240 243 244 123 217 232 249 242 260 284 301 303 307 302 296 292 288 287 278 267 264 265 260 259 263 271 274 266 267 274 280 284 288 292 300 300 293 291 291 289
212 178 180 207 247 270 272 196 185 230 267 238 257 282 301 318 298 278 304 302 294 291 281 273 271 262 254 253 257 265 265 266 272 277 281 285 284 285 289 292 293 294 290 289
101 174 194 202 236 252 255 106 24 244 263 225 267 289 310 321 292 322 352 326 318 316 304 297 291 273 250 269 253 244 256 264 275 284 286 287 284 283 281 284 290 295 294 293
170 182 208 217 243 266 294 137 190 232 298 340 288 290 286 271 291 322 326 326 328 331 337 343 327 290 296 302 266 258 267 278 290 293 290 288 284 281 281 285 289 291 292 297
193 189 200 201 225 249 135 159 211 276 335 304 297 288 269 279 301 313 319 326 336 342 352 357 348 337 338 319 284 280 286 297 299 294 290 290 289 287 284 283 286 288 289 291
215 212 203 210 234 331 184 224 258 298 285 293 295 288 275 277 289 306 315 320 326 330 340 348 347 342 341 329 301 289 301 307 301 295 291 293 297 292 285 280 281 284 285 283
218 213 224 250 263 266 246 251 260 264 272 286 288 280 266 271 282 297 304 307 312 317 326 333 335 330 327 326 315 300 304 303 298 295 296 296 295 294 292 285 279 279 277 279
213 184 215 250 270 282 253 238 260 276 279 283 285 270 266 268 275 280 286 289 294 304 310 308 306 306 315 324 322 320 314 306 300 297 296 299 294 292 296 294 291 285 280 282
201 198 206 236 231 236 264 265 265 261 270 275 279 280 276 260 264 271 274 278 281 288 296 300 304 307 312 316 319 324 318 308 299 294 295 297 298 300 298 299 300 291 281 290